Battle Creek, MI

2:34 PM EST on February 27, 2017 (GMT -0500)
Kellogg

Weather History for KBTL - May, 2013

Change the Weather History Date:

Thursday, May 23, 2013

  Actual Average Record
Temperature  
Mean Temperature 54 °F 60 °F  
Max Temperature 62 °F 73 °F 88 °F (2007)
Min Temperature 45 °F 48 °F 37 °F (2006)
Degree Days  
Heating Degree Days 11 6  
Month to date heating degree days 100 204  
Since 1 July heating degree days 6327 6593  
Cooling Degree Days 0 1  
Month to date cooling degree days 51 17  
Year to date cooling degree days 51 24  
Growing Degree Days 4 (Base 50)    
Moisture  
Dew Point 50 °F    
Average Humidity 85    
Maximum Humidity 93    
Minimum Humidity 77    
Precipitation  
Precipitation 0.08 in 0.13 in 0.41 in (2004)
Month to date precipitation 0.95 2.76  
Year to date precipitation 12.09 10.47  
Sea Level Pressure  
Sea Level Pressure 29.91 in    
Wind  
Wind Speed 10 mph (NNW)    
Max Wind Speed 22 mph    
Max Gust Speed 29 mph    
Visibility 8 miles    
Events Rain    
T = Trace of Precipitation, MM = Missing Value Source: NWS Daily Summary

Daily Weather History Graph

Daily Weather History Graph

Search for Another Location

Airport or City:

Trip Planner

Search our weather history database for the weather conditions in past years. The results will help you decide how hot, cold, wet, or windy it might be!

Date:

Astronomy

May. 23, 2013 Rise Set
Actual Time 6:12 AM EDT 9:03 PM EDT
Civil Twilight 5:39 AM EDT 9:36 PM EDT
Nautical Twilight 4:57 AM EDT 10:18 PM EDT
Astronomical Twilight 4:09 AM EDT 11:07 PM EDT
Moon 7:34 PM EDT (5/23) 4:58 AM EDT (5/23)
Length of Visible Light 15h 57m
Length of Day
14h 51m
Waxing Gibbous, 97% of the Moon is Illuminated
May 23
Waxing Gibbous
May 25
Full
May 31
Last Quarter
Jun 8
New
Jun 16
First Quarter

Hourly Weather History & Observations

Time (EDT) Temp. Dew Point Humidity Pressure Visibility Wind Dir Wind Speed Gust Speed Precip Events Conditions
12:53 AM 61.0 °F 57.0 °F 87% 29.73 in 10.0 mi SW 8.1 mph - N/A   Overcast
1:53 AM 61.0 °F 57.9 °F 90% 29.72 in 10.0 mi WSW 6.9 mph - N/A   Mostly Cloudy
2:53 AM 60.1 °F 55.9 °F 86% 29.71 in 10.0 mi SW 6.9 mph - N/A   Partly Cloudy
3:53 AM 59.0 °F 55.0 °F 87% 29.72 in 10.0 mi SW 8.1 mph - N/A   Clear
4:53 AM 57.0 °F 54.0 °F 89% 29.73 in 9.0 mi WSW 6.9 mph - N/A   Clear
5:12 AM 57.2 °F 53.6 °F 88% 29.74 in 8.0 mi WSW 6.9 mph - N/A   Mostly Cloudy
5:19 AM 57.2 °F 53.6 °F 88% 29.74 in 8.0 mi WSW 5.8 mph - N/A   Mostly Cloudy
5:53 AM 57.0 °F 55.0 °F 93% 29.75 in 6.0 mi West 5.8 mph - N/A   Overcast
6:53 AM 57.9 °F 55.0 °F 90% 29.75 in 4.0 mi WSW 6.9 mph - N/A   Overcast
7:53 AM 57.0 °F 54.0 °F 89% 29.77 in 8.0 mi West 9.2 mph - N/A   Overcast
8:53 AM 57.0 °F 54.0 °F 89% 29.79 in 10.0 mi West 8.1 mph - N/A   Overcast
9:53 AM 55.9 °F 53.1 °F 90% 29.81 in 10.0 mi West 11.5 mph - N/A   Overcast
10:14 AM 55.4 °F 53.6 °F 94% 29.82 in 2.5 mi West 9.2 mph - 0.00 in Rain Light Rain
10:27 AM 53.6 °F 51.8 °F 94% 29.82 in 5.0 mi West 11.5 mph - 0.01 in Rain Light Rain
10:53 AM 53.1 °F 51.1 °F 93% 29.83 in 10.0 mi WNW 10.4 mph - 0.01 in Rain Light Rain
11:53 AM 53.1 °F 50.0 °F 89% 29.86 in 10.0 mi NW 10.4 mph - 0.00 in Rain Light Rain
12:32 PM 53.6 °F 51.8 °F 94% 29.88 in 1.8 mi NNE 10.4 mph - 0.02 in Rain Light Rain
12:47 PM 53.6 °F 51.8 °F 94% 29.89 in 3.0 mi NE 12.7 mph - 0.03 in Rain Light Rain
12:53 PM 54.0 °F 51.1 °F 90% 29.89 in 5.0 mi NNE 13.8 mph - 0.03 in Rain Light Rain
1:00 PM 53.6 °F 50.0 °F 88% 29.90 in 6.0 mi NNE 15.0 mph 24.2 mph 0.00 in Rain Light Rain
1:24 PM 51.8 °F 48.2 °F 88% 29.91 in 2.0 mi NNE 13.8 mph 21.9 mph 0.00 in Rain Light Rain
1:53 PM 51.1 °F 48.0 °F 89% 29.93 in 2.0 mi NNE 17.3 mph 24.2 mph 0.02 in Rain Light Rain
1:56 PM 51.8 °F 46.4 °F 82% 29.93 in 5.0 mi NNE 16.1 mph 25.3 mph 0.00 in Rain Light Rain
2:53 PM 52.0 °F 48.0 °F 86% 29.95 in 10.0 mi NNE 16.1 mph - 0.01 in Rain Light Rain
3:00 PM 51.8 °F 48.2 °F 88% 29.95 in 10.0 mi NNE 12.7 mph 20.7 mph 0.00 in Rain Light Rain
3:11 PM 51.8 °F 46.4 °F 82% 29.96 in 4.0 mi NNE 13.8 mph 19.6 mph 0.00 in Rain Light Rain
3:21 PM 51.8 °F 46.4 °F 82% 29.96 in 10.0 mi NNE 17.3 mph 24.2 mph 0.01 in Rain Light Rain
3:53 PM 51.1 °F 46.0 °F 83% 29.98 in 10.0 mi North 16.1 mph - 0.01 in Rain Light Rain
4:53 PM 52.0 °F 46.0 °F 80% 30.01 in 10.0 mi NNE 11.5 mph - 0.00 in   Overcast
5:53 PM 52.0 °F 45.0 °F 77% 30.04 in 10.0 mi NNE 8.1 mph - N/A   Overcast
6:53 PM 51.1 °F 46.0 °F 83% 30.06 in 10.0 mi North 17.3 mph 21.9 mph N/A   Overcast
6:59 PM 50.0 °F 44.6 °F 82% 30.07 in 10.0 mi North 18.4 mph 24.2 mph N/A   Overcast
7:53 PM 48.9 °F 43.0 °F 80% 30.11 in 10.0 mi North 11.5 mph 20.7 mph N/A   Overcast
8:53 PM 48.9 °F 43.0 °F 80% 30.13 in 10.0 mi North 9.2 mph - N/A   Overcast
9:53 PM 48.0 °F 42.1 °F 80% 30.16 in 10.0 mi NNE 6.9 mph - N/A   Overcast
10:53 PM 48.0 °F 42.1 °F 80% 30.19 in 10.0 mi NNE 6.9 mph - N/A   Overcast
11:16 PM 48.2 °F 42.8 °F 82% 30.19 in 10.0 mi NNE 6.9 mph - N/A   Overcast
11:53 PM 48.0 °F 42.1 °F 80% 30.20 in 10.0 mi North 5.8 mph - N/A   Overcast